Tracking 31027 objects as of 19-Jul-2025
HD Live streaming from Space Station
objects crossing your sky now

STARLINK-6262

Track STARLINK-6262 now!
10-day predictions
STARLINK-6262 is classified as:


NORAD ID: 57091
Int'l Code: 2023-088AV
Perigee: 565.3 km
Apogee: 567.1 km
Inclination: 43.0 °
Period: 95.8 minutes
Semi major axis: 6937 km
RCS: Unknown
Launch date: June 22, 2023
Source: United States (US)
Launch site: AIR FORCE WESTERN TEST RANGE (AFWTR)
Your satellite tracking list
DEWASAT-2
Track 1 satellite(s)




NASA's NSSDC Master Catalog

Two Line Element Set (TLE):
1 57091U 23088AV  25199.56980499 -.00005129  00000-0 -36487-3 0  9999
2 57091  43.0036 286.4614 0001258 263.9496  96.1203 15.02537796114390
Source of the keplerian elements: AFSPC